Regional Weather Roundup
Issued by NWS

Home | Current Version | Previous Version | Graphics & Text | Print | Product List | Glossary On
Versions: 1 2 3 4 5 6 7 8 9 10 11 12 13 14 15 16 17 18 19 20 21 22 23 24 25 26 27 28 29 30 31 32 33 34 35 36 37 38 39 40 41 42 43 44 45 46 47 48 49 50
000
ASUS43 KDMX 290107
RWRIA

WEATHER ROUNDUP FOR IOWA
NATIONAL WEATHER SERVICE DES MOINES IA
800 PM CDT FRI AUG 28 2015

NOTE: "FAIR" INDICATES FEW OR NO CLOUDS BELOW 12,000 FEET WITH NO
SIGNIFICANT WEATHER AND/OR OBSTRUCTIONS TO VISIBILITY.

* - THESE STATIONS ARE NOT NWS STATIONS...THUS NOT UNDER NWS
QUALITY CONTROL.  THEY ALSO DO NOT REPORT WEATHER SUCH
AS PRECIPITATION OR FOG.

IAZ001>003-012>014-020>022-031>034-043>046-290200-
   NORTHWEST IOWA

CITY           SKY/WX    TMP DP  RH WIND       PRES   REMARKS
CARROLL *      CLOUDY    64  64 100 N10       29.88R FOG
CHEROKEE *     CLOUDY    61  61 100 NE8       29.95R
DENISON *      CLOUDY    64  63  94 N10       29.88R
LE MARS *      CLOUDY    63  61  94 N9G16     29.97R
ORANGE CITY *  CLOUDY    61  59  94 NE5       29.98R
SHELDON *      CLOUDY    61  59  94 NE9       29.97R
SIOUX CITY     CLOUDY    64  59  83 N13       29.94R
SPENCER        CLOUDY    61  57  87 NE12      29.98R
STORM LAKE *   FOG       61  61 100 NE16      29.94R VSB 1
$$

IAZ055>058-069>071-079>083-090>094-290200-
   SOUTHWEST IOWA

CITY           SKY/WX    TMP DP  RH WIND       PRES   REMARKS
ATLANTIC *     MOCLDY    70  68  94 NW5       29.87R
AUDUBON *      PTCLDY    70  66  88 CALM      29.88R
CLARINDA *     MOCLDY    72  70  94 CALM      29.90R
COUNCIL BLFS * CLOUDY    66  66 100 NW8G15    29.90R FOG
CRESTON *      LGT RAIN  72  68  88 SW8G14    29.90R
HARLAN  *      CLOUDY    68 -33   1 NW7       29.91R
LAMONI         CLOUDY    74  66  76 S9        29.89R
RED OAK *      PTCLDY    70  68  94 NW3       29.88R
SHENANDOAH *   PTCLDY    72  68  88 MISG      29.88R
$$

IAZ047>049-059>061-072>074-084-290200-
   CENTRAL IOWA

CITY           SKY/WX    TMP DP  RH WIND       PRES   REMARKS
AMES           CLOUDY    67  67 100 SE5       29.87R FOG
ANKENY *       DRIZZLE   72  70  94 CALM      29.87R
CHARITON *     CLOUDY    72  66  83 S13       29.88R
DES MOINES     CLOUDY    73  67  81 S6        29.86R
GRINNELL*      LGT RAIN  64  64 100 E8        29.91S
KNOXVILLE *    CLOUDY    70  64  83 S13       29.86R
MARSHALLTOWN   LGT RAIN  66  64  93 SE14      29.89R FOG
PELLA *        LGT RAIN  70  68  94 SE5       29.89R
PERRY *        CLOUDY    72  70  94 CALM      29.86R
$$

IAZ004>006-015-016-023>025-035-036-290200-
   NORTH CENTRAL IOWA

CITY           SKY/WX    TMP DP  RH WIND       PRES   REMARKS
ALGONA *       CLOUDY    59  59 100 NE10      29.95R FOG
CLARION *      FOG       61  59  94 NE13      29.91S VSB 1
ESTHERVILLE    CLOUDY    59  57  93 NE12      29.97R
FORT DODGE *   CLOUDY    61  57  88 NE9       29.91R
MASON CITY     LGT RAIN  59  58  96 E14       29.96S FOG
FOREST CITY *  CLOUDY    57  57 100 E9G17     29.96R FOG
IOWA FALLS *   RAIN      64  63  94 E8        29.91S
$$

IAZ007>011-017>019-026>030-037>042-050>054-066-290200-
   NORTHEAST IOWA

CITY           SKY/WX    TMP DP  RH WIND       PRES   REMARKS
CEDAR RAPIDS   TSTM      65  65 100 E10       29.95R
CHARLES CITY * CLOUDY    61  61 100 E13       29.96R FOG
CLINTON *      CLOUDY    66  64  94 E9        30.01S
DECORAH *      DRIZZLE   59  59 100 E9        29.99F
DUBUQUE        RAIN      64  32  30 SE12G21   30.00S
MONTICELLO *   LGT RAIN  64  63  94 E12G21    29.96S
OELWEIN *      CLOUDY    63  63 100 SE7G15    29.95S FOG
WATERLOO       LGT RAIN  64  63  96 SE9       29.91R
$$

IAZ064-065-067-068-078-290200-
   EAST CENTRAL IOWA

CITY           SKY/WX    TMP DP  RH WIND       PRES   REMARKS
DAVENPORT      CLOUDY    69  63  81 E14       29.95F
IOWA CITY      CLOUDY    70  63  78 E5        29.96R
MT. PLEASANT * CLOUDY    72  61  68 S8        29.94F
MUSCATINE *    CLOUDY    72  61  68 SE9       29.95R
QUAD CITIES    LGT RAIN  70  62  76 E13       29.96F
$$

IAZ062-063-075>077-085>089-095>099-290200-
   SOUTHEAST IOWA

CITY           SKY/WX    TMP DP  RH WIND       PRES   REMARKS
BURLINGTON     CLOUDY    71  63  75 S9        29.95R
FAIRFIELD *    CLOUDY    70  63  78 S17       29.90F
FORT MADISON * CLEAR     70  63  78 SE6       29.96R
KEOKUK *       MOCLDY    72  63  73 S7G13     29.95R
OSKALOOSA *    CLOUDY    70  63  78 S13       29.89R
CENTERVILLE *  PTCLDY    72  66  83 S9        29.92R
OTTUMWA        CLOUDY    71  64  78 S14G22    29.88F
WASHINGTON *     N/A    N/A N/A N/A MISG        N/A
$$

ABBREVIATIONS USED IN REMARKS
   TC - TEMPERATURES IN CELSIUS
  WCI - WIND CHILL INDEX
   HX - HEAT INDEX
  VSB - VISIBILITY
$$



USA.gov is the U.S. government's official web portal to all federal, state and local government web resources and services.